Regional Weather Roundup
Issued by NWS Melbourne, FL

Home | Current Version | Previous Version | Text Only | Print | Product List | Glossary On
Versions: 1 2 3 4 5 6 7 8 9 10 11 12 13 14 15 16 17 18 19 20 21 22 23 24 25 26 27
000
ASUS42 KMLB 310611
RWRMLB
HOURLY WEATHER ROUNDUP AROUND FLORIDA
NATIONAL WEATHER SERVICE OFFICE MELBOURNE FL
200 AM EDT SAT JUL 31 2021

CITY           SKY/WX    TMP DP  RH WIND       PRES   REMARKS
MELBOURNE      PTCLDY    81  75  82 SW7       30.04F
FORT PIERCE    MOCLDY    80  75  84 SW5       30.06F
ORLANDO INTL   PTCLDY    81  75  82 W6        30.06S
DAYTONA BEACH  PTCLDY    79  75  87 CALM      30.05S
VERO BEACH     PTCLDY    81  74  79 S8        30.06F
$$
...ELSEWHERE ACROSS CENTRAL FLORIDA...

CITY           SKY/WX    TMP DP  RH WIND       PRES   REMARKS
PATRICK AFB    PTCLDY    83  81  93 SW6       30.03F
KSC            PTCLDY    78  76  95 W6        30.04S
CAPE CANAVERAL PTCLDY    78  76  92 SW6       30.04S
SEBASTIAN      FAIR      80  75  85 S8        30.06S
ORLANDO EXEC   CLEAR     81  75  82 SW5       30.06S
LEESBURG       CLEAR     81  76  84 SW7       30.06F
SANFORD        PTCLDY    81  74  79 CALM      30.05S
DELAND         CLEAR     79  76  90 CALM      30.06S
WINTER HAVEN   PTCLDY    80  75  84 SW7       30.08F
KISSIMMEE      CLEAR    N/A N/A N/A W6        30.07F
OKEECHOBEE     MOCLDY   N/A N/A N/A MISG      30.07S
TAMPA          PTCLDY    84  76  76 SW7       30.06F
$$
...NORTHERN FLORIDA...

CITY           SKY/WX    TMP DP  RH WIND       PRES   REMARKS
ST AUGUSTINE   PTCLDY    80  77  90 W6        30.04F
OCALA          PTCLDY    77  77 100 CALM      30.06S
GAINESVILLE    CLEAR     78  76  93 SW5       30.06F
JACKSONVILLE   PTCLDY    78  76  93 SW5       30.01S
TALLAHASSEE    PTCLDY    80  77  90 S3        30.01F
$$
...ALONG THE SOUTHEAST COAST TO THE KEYS...

CITY           SKY/WX    TMP DP  RH WIND       PRES   REMARKS
STUART         PTCLDY    82  75  78 SW6       30.08S
WEST PALM BCH  PTCLDY    83  76  79 S5        30.08S
MIAMI          PTCLDY    83  76  79 CALM      30.08F
KEY WEST       PTCLDY    85  75  72 SE12      30.07F
$$
...MARINE REPORTS...

STATION/POSITION TIME  TEMP    WIND        PRES    WAVE   SWELL
                       AIR SEA DIR/SP/G            HT/PER HT/PER
                 (UTC) (F)     (DEG/KT/KT) (MB)    (FT/S) (FT/S)
ST AUGUSTINE FP  0600   80 84  230/  6/  7 1017.3F
20NM E CAPE CANA 0550   84 85  220/ 10/ 12 1016.5F   2/ 4   2/ 9
120 E NEW SMYRNA 0550   84 84  200/ 14/ 17 1017.7F
TRIDENT PIER     0530   81 84  230/  3/  4 1018.5F
4NM E PORT CANAV 0556      83                N/A     2/ 4
6NM NE FPR INLET 0556      83                N/A     1/ 3
SETTLEMENT PT GB 0600   84     170/  7/  9 1018.5F
$$



USA.gov is the U.S. government's official web portal to all federal, state and local government web resources and services.